Wise, VA

2:56 AM EST on December 09, 2019 (GMT -0500)
Lonesome Pine

Weather History for KLNP - November, 2019

Change the Weather History Date:

Tuesday, November 12, 2019

  Actual Average Record
Temperature  
Mean Temperature 32 °F -  
Max Temperature 48 °F 51 °F 69 °F (2010)
Min Temperature 15 °F 34 °F 17 °F (1996)
Degree Days  
Heating Degree Days 32    
Moisture  
Dew Point 22 °F    
Average Humidity 89    
Maximum Humidity 100    
Minimum Humidity 73    
Precipitation  
Precipitation 0.13 in - - ()
Sea Level Pressure  
Sea Level Pressure 30.14 in    
Wind  
Wind Speed 9 mph ()    
Max Wind Speed 15 mph    
Max Gust Speed 24 mph    
Visibility 7.2 miles    
Events Rain , Snow    
Averages and records for this station are not official NWS values.
T = Trace of Precipitation, MM = Missing Value Source: Averaged Metar Reports

Daily Weather History Graph

Daily Weather History Graph

Search for Another Location

Airport or City:

Astronomy

Nov. 12, 2019 Rise Set
Actual Time 7:05 AM EST 5:22 PM EST
Civil Twilight 6:37 AM EST 5:50 PM EST
Nautical Twilight 6:06 AM EST 6:21 PM EST
Astronomical Twilight 5:35 AM EST 6:52 PM EST
Moon 5:48 PM EST (11/12) 6:56 AM EST (11/12)
Length of Visible Light 11h 12m
Length of Day
10h 17m
Full, 100% of the Moon is Illuminated
Nov 12
Full
Nov 19
Last Quarter
Nov 26
New
Dec 4
First Quarter
Dec 12
Full

Hourly Weather History & Observations

Time (EST) Temp. Windchill Dew Point Humidity Pressure Visibility Wind Dir Wind Speed Gust Speed Precip Events Conditions
12:15 AM 48.2 °F - 48.2 °F 100% 29.95 in 7.0 mi WSW 11.5 mph - N/A Rain Rain
12:35 AM 42.8 °F 36.6 °F 42.8 °F 100% 29.97 in 10.0 mi NW 11.5 mph 19.6 mph 0.03 in Rain Rain
12:55 AM 41.0 °F 34.7 °F 41.0 °F 100% 30.00 in 10.0 mi WNW 10.4 mph 17.3 mph 0.04 in Rain Light Rain
1:15 AM 39.2 °F 33.0 °F 39.2 °F 100% 30.01 in 10.0 mi WNW 9.2 mph 17.3 mph N/A Rain Light Rain
1:35 AM 37.4 °F 30.8 °F 37.4 °F 100% 30.01 in 10.0 mi WNW 9.2 mph - 0.01 in Rain Light Rain
1:55 AM 37.4 °F 29.8 °F 37.4 °F 100% 30.01 in 10.0 mi WNW 11.5 mph 18.4 mph 0.01 in Rain Rain
2:15 AM 35.6 °F 27.5 °F 35.6 °F 100% 30.01 in 10.0 mi WNW 11.5 mph - N/A Rain Light Rain
2:35 AM 33.8 °F 23.9 °F 33.8 °F 100% 30.02 in 4.0 mi NW 15.0 mph 24.2 mph 0.01 in Snow Light Snow
2:55 AM 32.0 °F 23.6 °F 32.0 °F 100% 30.01 in 4.0 mi NNW 10.4 mph 18.4 mph 0.01 in Snow Light Snow
3:35 AM 32.0 °F 22.5 °F 32.0 °F 100% 30.01 in 3.0 mi NW 12.7 mph 19.6 mph N/A Snow Light Snow
3:55 AM 32.0 °F 24.2 °F 32.0 °F 100% 30.02 in 2.5 mi NW 9.2 mph 17.3 mph N/A Snow Light Snow
4:15 AM 30.2 °F 21.9 °F 30.2 °F 100% 30.03 in 1.2 mi NNW 9.2 mph 16.1 mph 0.01 in Snow Light Snow
4:35 AM 30.2 °F 23.4 °F 30.2 °F 100% 30.03 in 1.0 mi NNW 6.9 mph - 0.01 in Snow Light Snow
4:55 AM 30.2 °F 23.4 °F 30.2 °F 100% 30.04 in 0.5 mi NNW 6.9 mph 16.1 mph 0.01 in Snow Snow
5:15 AM 30.2 °F 21.9 °F 30.2 °F 100% 30.05 in 0.8 mi NNW 9.2 mph - N/A Snow Snow
5:35 AM 30.2 °F 21.3 °F 30.2 °F 100% 30.05 in 0.8 mi NW 10.4 mph 18.4 mph 0.01 in Snow Snow
5:55 AM 28.4 °F 19.1 °F 28.4 °F 100% 30.07 in 0.8 mi NW 10.4 mph 24.2 mph 0.01 in Snow Snow
6:15 AM 28.4 °F 20.4 °F 28.4 °F 100% 30.08 in 0.8 mi NW 8.1 mph 16.1 mph N/A Snow Snow
6:35 AM 28.4 °F 18.5 °F 28.4 °F 100% 30.09 in 0.8 mi NNW 11.5 mph 18.4 mph N/A Snow Snow
6:55 AM 28.4 °F 19.1 °F 28.4 °F 100% 30.09 in 2.5 mi NNW 10.4 mph 17.3 mph 0.01 in Snow Light Snow
7:15 AM 26.6 °F 17.5 °F 26.6 °F 100% 30.10 in 5.0 mi NNW 9.2 mph 18.4 mph 0.01 in Snow Light Snow
7:35 AM 26.6 °F 17.5 °F 26.6 °F 100% 30.11 in 10.0 mi NW 9.2 mph - 0.02 in   Overcast
7:55 AM 26.6 °F 19.1 °F 26.6 °F 100% 30.12 in 10.0 mi NW 6.9 mph 18.4 mph 0.03 in   Overcast
8:35 AM 26.6 °F 15.7 °F 26.6 °F 100% 30.14 in 10.0 mi NW 12.7 mph 23.0 mph 0.01 in   Overcast
8:55 AM 26.6 °F 16.2 °F 23.0 °F 86% 30.15 in 10.0 mi NW 11.5 mph - 0.01 in   Overcast
9:15 AM 26.6 °F 18.2 °F 23.0 °F 86% 30.14 in 10.0 mi NNW 8.1 mph - N/A   Overcast
9:35 AM 24.8 °F 13.4 °F 23.0 °F 93% 30.14 in 10.0 mi North 12.7 mph 16.1 mph N/A   Overcast
9:55 AM 24.8 °F 14.6 °F 21.2 °F 86% 30.14 in 10.0 mi NNW 10.4 mph 19.6 mph N/A   Overcast
10:15 AM 24.8 °F 14.0 °F 21.2 °F 86% 30.15 in 10.0 mi NNW 11.5 mph 18.4 mph N/A   Overcast
10:35 AM 23.0 °F 12.4 °F 21.2 °F 93% 30.15 in 10.0 mi North 10.4 mph 16.1 mph N/A   Overcast
10:55 AM 23.0 °F 13.9 °F 21.2 °F 93% 30.15 in 10.0 mi NNW 8.1 mph 17.3 mph N/A Snow Light Snow
11:15 AM 24.8 °F 19.1 °F 21.2 °F 86% 30.16 in 5.0 mi NW 4.6 mph 17.3 mph N/A Snow Light Snow
11:35 AM 23.0 °F 14.7 °F 21.2 °F 93% 30.15 in 7.0 mi WNW 6.9 mph - N/A Snow Light Snow
11:55 AM 23.0 °F 13.1 °F 21.2 °F 93% 30.16 in 7.0 mi NW 9.2 mph - N/A Snow Light Snow
12:15 PM 23.0 °F 13.9 °F 19.4 °F 86% 30.16 in 7.0 mi North 8.1 mph - N/A Snow Light Snow
12:35 PM 23.0 °F 13.1 °F 19.4 °F 86% 30.16 in 5.0 mi NNW 9.2 mph - N/A Snow Light Snow
12:55 PM 23.0 °F 13.1 °F 19.4 °F 86% 30.16 in 7.0 mi NW 9.2 mph - N/A Snow Light Snow
1:15 PM 23.0 °F 13.1 °F 19.4 °F 86% 30.15 in 7.0 mi NNW 9.2 mph - N/A Snow Light Snow
1:35 PM 23.0 °F 13.9 °F 19.4 °F 86% 30.15 in 7.0 mi NW 8.1 mph 17.3 mph N/A Snow Light Snow
1:55 PM 23.0 °F 14.7 °F 19.4 °F 86% 30.15 in 10.0 mi WNW 6.9 mph - N/A Snow Light Snow
2:15 PM 23.0 °F 12.4 °F 19.4 °F 86% 30.15 in 10.0 mi NW 10.4 mph - N/A Snow Light Snow
2:55 PM 23.0 °F 12.4 °F 19.4 °F 86% 30.16 in 4.0 mi WNW 10.4 mph 19.6 mph N/A Snow Light Snow
3:15 PM 23.0 °F 13.9 °F 17.6 °F 80% 30.16 in 7.0 mi NNW 8.1 mph - N/A Snow Light Snow
3:35 PM 23.0 °F 13.1 °F 17.6 °F 80% 30.16 in 4.0 mi NW 9.2 mph - N/A Snow Light Snow
3:55 PM 23.0 °F 14.7 °F 17.6 °F 80% 30.17 in 10.0 mi NW 6.9 mph 16.1 mph N/A Snow Light Snow
4:15 PM 23.0 °F 14.7 °F 17.6 °F 80% 30.18 in 7.0 mi NW 6.9 mph - N/A Snow Light Snow
4:35 PM 21.2 °F 9.5 °F 17.6 °F 86% 30.18 in 1.8 mi NNW 11.5 mph 19.6 mph N/A Snow Light Snow
4:55 PM 21.2 °F 11.7 °F 17.6 °F 86% 30.19 in 10.0 mi NNW 8.1 mph - N/A Snow Light Snow
5:15 PM 21.2 °F 12.6 °F 15.8 °F 80% 30.20 in 10.0 mi NW 6.9 mph 18.4 mph N/A Snow Light Snow
5:35 PM 21.2 °F 10.1 °F 15.8 °F 80% 30.21 in 4.0 mi NNW 10.4 mph 16.1 mph N/A Snow Light Snow
5:55 PM 19.4 °F 8.6 °F 12.2 °F 74% 30.21 in 10.0 mi NNW 9.2 mph - N/A Snow Light Snow
6:15 PM 19.4 °F 10.4 °F 12.2 °F 74% 30.21 in 10.0 mi NW 6.9 mph - N/A   Overcast
6:35 PM 19.4 °F 8.6 °F 14.0 °F 80% 30.22 in 10.0 mi NW 9.2 mph - N/A Snow Light Snow
6:55 PM 19.4 °F 10.4 °F 14.0 °F 80% 30.23 in 10.0 mi NNW 6.9 mph - N/A Snow Light Snow
7:15 PM 19.4 °F 8.6 °F 14.0 °F 80% 30.24 in 10.0 mi NW 9.2 mph - N/A Snow Light Snow
7:35 PM 19.4 °F 10.4 °F 15.8 °F 86% 30.25 in 10.0 mi WNW 6.9 mph - N/A Snow Light Snow
7:55 PM 19.4 °F 8.6 °F 14.0 °F 80% 30.25 in 7.0 mi NW 9.2 mph - N/A Snow Light Snow
8:15 PM 19.4 °F 10.4 °F 14.0 °F 80% 30.25 in 3.0 mi NW 6.9 mph - N/A Snow Light Snow
8:35 PM 19.4 °F 10.4 °F 14.0 °F 80% 30.26 in 7.0 mi NW 6.9 mph - N/A Snow Light Snow
8:55 PM 19.4 °F 8.6 °F 14.0 °F 80% 30.26 in 10.0 mi NNW 9.2 mph - N/A Snow Light Snow
9:15 PM 19.4 °F 9.5 °F 12.2 °F 74% 30.27 in 10.0 mi North 8.1 mph - N/A Snow Light Snow
9:35 PM 17.6 °F 5.0 °F 12.2 °F 79% 30.27 in 10.0 mi North 11.5 mph 16.1 mph N/A Snow Light Snow
9:55 PM 17.6 °F 5.0 °F 12.2 °F 79% 30.27 in 7.0 mi North 11.5 mph 16.1 mph N/A Snow Light Snow
10:15 PM 17.6 °F 9.3 °F 12.2 °F 79% 30.28 in 10.0 mi North 5.8 mph - N/A Snow Light Snow
10:35 PM 17.6 °F 6.4 °F 12.2 °F 79% 30.27 in 10.0 mi North 9.2 mph - N/A Snow Light Snow
10:55 PM 17.6 °F 9.3 °F 10.4 °F 73% 30.27 in 10.0 mi North 5.8 mph - N/A Snow Light Snow
11:15 PM 17.6 °F 7.3 °F 12.2 °F 79% 30.26 in 10.0 mi NNE 8.1 mph - N/A Snow Light Snow
11:35 PM 15.8 °F 6.1 °F 10.4 °F 79% 30.26 in 10.0 mi North 6.9 mph - N/A   Overcast